Location: Bethel Cemetery
(33.4585°N, 96.4003°W)
Time: 03:35:38
(UTC+00:00)

Cosmos 2084 Rocket - Pass Details

Date: 11 December 2025
Orbit: 544 x 569 km, 62.8° (Epoch: 21 January)

Event Time Altitude Azimuth Distance (km) Brightness Sun altitude
Rises 23:42:35 0° 339° (NNW) 2,772 6.9 -5.4°
Reaches altitude 10° 23:45:01 10° 349° (N) 1,874 5.9 -5.9°
Maximum altitude 23:48:49 32° 53° (NE) 997 4.1 -6.6°
Drops below altitude 10° 23:52:36 10° 117° (ESE) 1,867 5.7 -7.3°
Sets 23:55:00 0° 128° (SE) 2,760 6.6 -7.8°
